FW1241 Weather Reports


Display with metric or nautical units.
time (UTC)temp
F
wind
direction
speed
MPH
gust
MPH
rain 1hr
in
rain 24hr
in
rain mn
in
humidity
%
barometer
mb
20180821135604 62 110 0.0 0.0 0.00 0.00 0.00 70 1011.0
20180821134604 62 110 0.0 0.0 0.00 0.00 0.00 71 1010.8
20180821134104 62 110 0.0 0.0 0.00 0.00 0.00 72 1010.8
20180821133604 62 110 0.0 0.0 0.00 0.00 0.00 74 1010.8
20180821133104 62 110 0.0 0.0 0.00 0.00 0.00 71 1010.7
20180821132604 62 110 0.0 0.0 0.00 0.00 0.00 71 1010.7
20180821132103 63 110 0.0 0.0 0.00 0.00 0.00 72 1010.7
20180821131604 63 110 0.0 0.0 0.00 0.00 0.00 72 1010.6
20180821131103 63 110 0.0 0.0 0.00 0.00 0.00 70 1010.6
20180821130604 63 110 0.0 0.0 0.00 0.00 0.00 70 1010.6
20180821130104 63 110 0.0 0.0 0.00 0.00 0.00 70 1010.5
20180821125604 63 110 0.0 0.0 0.00 0.00 0.00 70 1010.5
20180821124604 64 110 0.0 0.0 0.00 0.00 0.00 69 1010.3
20180821124104 64 110 0.0 0.0 0.00 0.00 0.00 69 1010.2
20180821123603 64 110 0.0 0.0 0.00 0.00 0.00 68 1010.1
20180821123104 64 110 0.0 0.0 0.00 0.00 0.00 67 1010.1
20180821122604 64 110 0.0 1.0 0.00 0.00 0.00 68 1010.0
20180821121604 64 110 0.0 0.0 0.00 0.00 0.00 67 1009.9
20180821120604 65 110 0.0 0.0 0.00 0.00 0.00 67 1009.9
20180821120104 65 110 0.0 0.0 0.00 0.00 0.00 67 1009.9
20180821115608 65 110 0.0 0.0 0.00 0.00 0.00 66 1009.9
20180821115105 65 110 0.0 0.0 0.00 0.00 0.00 66 1009.8
20180821114608 65 110 0.0 0.0 0.00 0.00 0.00 66 1009.9
20180821113607 65 110 0.0 1.0 0.00 0.00 0.00 66 1009.8
20180821113105 66 110 0.0 0.0 0.00 0.00 0.00 65 1009.7
20180821112605 66 110 0.0 0.0 0.00 0.00 0.00 65 1009.7
20180821112104 66 110 0.0 0.0 0.00 0.00 0.00 65 1009.7
20180821111605 66 110 0.0 1.0 0.00 0.00 0.00 65 1009.7
20180821111107 66 128 0.0 1.0 0.00 0.00 0.00 65 1009.7
20180821104105 65 131 0.0 1.0 0.00 0.00 0.00 63 1009.7
20180821103105 66 118 0.0 1.0 0.00 0.00 0.00 62 1009.6
20180821102604 66 118 0.0 0.0 0.00 0.00 0.00 61 1009.6
20180821101619 66 134 0.0 1.0 0.00 0.00 0.00 60 1009.4
20180821095605 66 132 0.0 0.0 0.00 0.00 0.00 60 1009.3
20180821095106 67 132 0.0 1.0 0.00 0.00 0.00 61 1009.4
20180821094604 67 132 0.0 1.0 0.00 0.00 0.00 60 1009.3
20180821094105 67 132 0.0 0.0 0.00 0.00 0.00 60 1009.2
20180821093604 67 132 0.0 0.0 0.00 0.00 0.00 60 1009.1
20180821093113 68 132 0.0 0.0 0.00 0.00 0.00 59 1009.1
20180821092604 68 132 0.0 0.0 0.00 0.00 0.00 58 1009.1
20180821091604 69 132 0.0 0.0 0.00 0.00 0.00 56 1009.1
20180821090604 69 132 0.0 0.0 0.00 0.00 0.00 56 1009.0
20180821085105 70 132 0.0 0.0 0.00 0.00 0.00 52 1008.9
20180821084604 70 132 0.0 0.0 0.00 0.00 0.00 52 1008.9
20180821084104 70 132 0.0 0.0 0.00 0.00 0.00 52 1008.9
20180821083604 70 132 0.0 0.0 0.00 0.00 0.00 53 1008.9
20180821083105 70 132 0.0 0.0 0.00 0.00 0.00 53 1008.9
20180821082604 71 132 0.0 1.0 0.00 0.00 0.00 53 1008.9
20180821081606 71 132 0.0 1.0 0.00 0.00 0.00 53 1008.8
20180821081104 71 138 0.0 0.0 0.00 0.00 0.00 52 1008.7
20180821080604 71 138 0.0 3.0 0.00 0.00 0.00 52 1008.7
20180821080105 71 137 0.0 1.0 0.00 0.00 0.00 52 1008.7
20180821075604 71 124 0.0 0.0 0.00 0.00 0.00 53 1008.8
20180821075105 71 124 0.0 0.0 0.00 0.00 0.00 54 1008.7
20180821074603 71 124 0.0 0.0 0.00 0.00 0.00 54 1008.8
20180821073608 71 124 0.0 1.0 0.00 0.00 0.00 54 1008.8
20180821072603 72 124 0.0 0.0 0.00 0.00 0.00 53 1008.8
20180821072103 72 124 0.0 0.0 0.00 0.00 0.00 53 1008.8
20180821071605 72 124 0.0 0.0 0.00 0.00 0.00 54 1008.8
20180821071103 72 124 0.0 0.0 0.00 0.00 0.00 55 1008.7
20180821070603 72 124 0.0 0.0 0.00 0.00 0.00 53 1008.6
20180821070104 73 124 0.0 0.0 0.00 0.00 0.00 53 1008.6
20180821065603 73 124 0.0 0.0 0.00 0.00 0.00 53 1008.5
20180821065104 73 124 0.0 0.0 0.00 0.00 0.00 52 1008.4
20180821064604 73 124 0.0 0.0 0.00 0.00 0.00 52 1008.4
20180821063604 73 124 0.0 0.0 0.00 0.00 0.00 53 1008.4
20180821062104 74 110 0.0 0.0 0.00 0.00 0.00 51 1008.3
20180821060604 75 110 0.0 0.0 0.00 0.00 0.00 50 1008.3
20180821055603 75 110 0.0 1.0 0.00 0.00 0.00 51 1008.2
20180821054603 75 119 0.0 1.0 0.00 0.00 0.00 53 1008.1
20180821054103 75 125 1.0 2.0 0.00 0.00 0.00 55 1008.1
20180821053603 76 143 0.0 1.0 0.00 0.00 0.00 57 1008.0
20180821052604 75 102 0.0 0.0 0.00 0.00 0.00 61 1007.9
20180821052103 76 101 0.0 0.0 0.00 0.00 0.00 61 1007.8
20180821051104 77 101 0.0 1.0 0.00 0.00 0.00 61 1007.8
20180821050603 78 305 0.0 0.0 0.00 0.00 0.00 59 1007.7
20180821050104 78 305 0.0 0.0 0.00 0.00 0.00 54 1007.6
20180821045103 79 305 0.0 0.0 0.00 0.00 0.00 54 1007.5
20180821044604 79 305 0.0 0.0 0.00 0.00 0.00 53 1007.4
20180821044104 79 305 0.0 0.0 0.00 0.00 0.00 52 1007.4
20180821043604 80 305 0.0 0.0 0.00 0.00 0.00 53 1007.3
20180821043104 80 305 0.0 0.0 0.00 0.00 0.00 52 1007.3
20180821042604 80 305 0.0 0.0 0.00 0.00 0.00 52 1007.3
20180821041604 81 305 0.0 0.0 0.00 0.00 0.00 51 1007.1
20180821040605 82 305 0.0 0.0 0.00 0.00 0.00 50 1007.0
20180821040104 82 305 0.0 0.0 0.00 0.00 0.00 52 1007.0
20180821035605 82 305 0.0 0.0 0.00 0.00 0.00 51 1006.8
20180821035105 82 305 0.0 0.0 0.00 0.00 0.00 55 1006.8
20180821034604 83 305 0.0 0.0 0.00 0.00 0.00 52 1006.8
20180821034104 83 305 0.0 0.0 0.00 0.00 0.00 51 1006.7
20180821033105 84 305 0.0 0.0 0.00 0.00 0.00 47 1006.7
20180821032604 84 305 0.0 0.0 0.00 0.00 0.00 45 1006.7
20180821032104 84 305 0.0 0.0 0.00 0.00 0.00 43 1006.7
20180821031104 85 305 0.0 0.0 0.00 0.00 0.00 42 1006.6
20180821030604 86 305 0.0 0.0 0.00 0.00 0.00 40 1006.6
20180821030105 87 305 0.0 0.0 0.00 0.00 0.00 40 1006.6
20180821025605 87 305 0.0 0.0 0.00 0.00 0.00 38 1006.6
20180821025104 88 305 0.0 0.0 0.00 0.00 0.00 36 1006.5
20180821024605 89 305 0.0 0.0 0.00 0.00 0.00 35 1006.5
20180821023604 91 305 0.0 0.0 0.00 0.00 0.00 31 1006.5
20180821023104 92 305 0.0 0.0 0.00 0.00 0.00 28 1006.5
20180821022604 92 305 0.0 1.0 0.00 0.00 0.00 27 1006.4
20180821022104 93 305 0.0 0.0 0.00 0.00 0.00 28 1006.4
20180821021604 93 305 0.0 1.0 0.00 0.00 0.00 27 1006.3
20180821021104 94 305 0.0 1.0 0.00 0.00 0.00 26 1006.3
20180821020603 94 305 0.0 1.0 0.00 0.00 0.00 25 1006.3
20180821015104 96 313 1.0 2.0 0.00 0.00 0.00 25 1006.2
20180821014604 96 310 1.0 3.0 0.00 0.00 0.00 23 1006.2
20180821014105 96 316 1.0 3.0 0.00 0.00 0.00 24 1006.2
20180821013604 97 326 1.0 2.0 0.00 0.00 0.00 25 1006.2
20180821013104 97 312 1.0 2.0 0.00 0.00 0.00 23 1006.2
20180821012604 98 304 1.0 2.0 0.00 0.00 0.00 23 1006.2
20180821012104 98 306 1.0 2.0 0.00 0.00 0.00 24 1006.2
20180821011604 99 313 0.0 2.0 0.00 0.00 0.00 25 1006.2
20180821011103 99 315 2.0 3.0 0.00 0.00 0.00 23 1006.2
20180821010603 100 301 0.0 1.0 0.00 0.00 0.00 18 1006.2
20180821005603 100 315 0.0 0.0 0.00 0.00 0.00 21 1006.2
20180821005104 100 315 0.0 0.0 0.00 0.00 0.00 20 1006.2
20180821003604 99 315 0.0 0.0 0.00 0.00 0.00 18 1006.3
20180821003104 99 316 0.0 1.0 0.00 0.00 0.00 16 1006.2
20180821001104 101 334 0.0 1.0 0.00 0.00 0.00 17 1006.4
20180821000605 100 328 0.0 2.0 0.00 0.00 0.00 18 1006.5
20180821000104 100 315 0.0 2.0 0.00 0.00 0.00 18 1006.5
20180820235603 101 316 0.0 1.0 0.00 0.00 0.00 20 1006.4
20180820235104 100 335 0.0 1.0 0.00 0.00 0.00 22 1006.4
20180820234604 100 290 1.0 3.0 0.00 0.00 0.00 21 1006.3
20180820233603 100 308 0.0 2.0 0.00 0.00 0.00 22 1006.4
20180820232604 101 20 0.0 2.0 0.00 0.00 0.00 20 1006.4
20180820231604 102 311 1.0 2.0 0.00 0.00 0.00 20 1006.5
20180820231104 102 182 0.0 1.0 0.00 0.00 0.00 21 1006.5
20180820230604 101 226 1.0 2.0 0.00 0.00 0.00 20 1006.5
20180820230105 101 297 0.0 1.0 0.00 0.00 0.00 21 1006.6
20180820225604 100 264 1.0 2.0 0.00 0.00 0.00 20 1006.6
20180820224604 101 275 1.0 3.0 0.00 0.00 0.00 20 1006.7
20180820224104 101 301 1.0 2.0 0.00 0.00 0.00 18 1006.8
20180820223604 101 305 1.0 3.0 0.00 0.00 0.00 19 1006.8
20180820223104 101 325 1.0 3.0 0.00 0.00 0.00 19 1006.9
20180820222104 101 322 0.0 2.0 0.00 0.00 0.00 20 1007.0
20180820221605 101 311 1.0 3.0 0.00 0.00 0.00 19 1007.1
20180820221104 101 309 1.0 3.0 0.00 0.00 0.00 18 1007.2
20180820220105 100 130 0.0 2.0 0.00 0.00 0.00 19 1007.4
20180820215104 101 321 1.0 3.0 0.00 0.00 0.00 17 1007.5
20180820214604 101 297 1.0 3.0 0.00 0.00 0.00 18 1007.6
20180820214104 101 330 0.0 3.0 0.00 0.00 0.00 18 1007.7
20180820213604 101 252 1.0 3.0 0.00 0.00 0.00 19 1007.7
20180820213104 100 309 1.0 3.0 0.00 0.00 0.00 19 1007.8
20180820212604 100 345 1.0 3.0 0.00 0.00 0.00 18 1007.9
20180820212104 100 339 0.0 2.0 0.00 0.00 0.00 21 1007.9
20180820211604 99 321 0.0 2.0 0.00 0.00 0.00 19 1008.0
20180820211104 99 304 1.0 3.0 0.00 0.00 0.00 21 1008.1
20180820210604 99 321 0.0 3.0 0.00 0.00 0.00 22 1008.1
20180820210105 98 293 1.0 3.0 0.00 0.00 0.00 22 1008.2
20180820205604 99 331 2.0 3.0 0.00 0.00 0.00 21 1008.3
20180820205104 98 310 1.0 2.0 0.00 0.00 0.00 22 1008.3
20180820204604 98 312 1.0 3.0 0.00 0.00 0.00 21 1008.4
20180820204104 98 312 1.0 2.0 0.00 0.00 0.00 22 1008.4
20180820203604 98 329 1.0 3.0 0.00 0.00 0.00 23 1008.5
20180820203104 98 38 0.0 1.0 0.00 0.00 0.00 22 1008.5
20180820202605 98 17 1.0 2.0 0.00 0.00 0.00 22 1008.6
20180820202106 98 288 1.0 2.0 0.00 0.00 0.00 25 1008.6
20180820201104 98 293 0.0 2.0 0.00 0.00 0.00 26 1008.6
20180820200105 97 155 0.0 1.0 0.00 0.00 0.00 29 1008.7
20180820194106 96 241 0.0 2.0 0.00 0.00 0.00 25 1009.0
20180820193104 95 132 0.0 1.0 0.00 0.00 0.00 29 1009.1
20180820192103 94 297 0.0 2.0 0.00 0.00 0.00 29 1009.3
20180820191604 94 313 2.0 3.0 0.00 0.00 0.00 31 1009.4
20180820191104 94 272 1.0 2.0 0.00 0.00 0.00 29 1009.5
20180820190105 95 318 1.0 2.0 0.00 0.00 0.00 29 1009.6
20180820185603 95 163 0.0 2.0 0.00 0.00 0.00 30 1009.6
20180820185104 95 345 0.0 2.0 0.00 0.00 0.00 30 1009.7
20180820184603 94 162 0.0 1.0 0.00 0.00 0.00 32 1009.7
20180820184103 94 196 0.0 1.0 0.00 0.00 0.00 32 1009.7
20180820183604 93 149 0.0 2.0 0.00 0.00 0.00 36 1009.6
20180820183104 93 322 1.0 2.0 0.00 0.00 0.00 33 1009.6
20180820182604 93 333 0.0 2.0 0.00 0.00 0.00 34 1009.6
20180820182103 93 208 0.0 1.0 0.00 0.00 0.00 37 1009.6
20180820181103 92 107 0.0 2.0 0.00 0.00 0.00 36 1009.7
20180820180604 92 142 0.0 2.0 0.00 0.00 0.00 35 1009.7
20180820180104 92 111 1.0 2.0 0.00 0.00 0.00 36 1009.6
20180820174604 91 161 0.0 1.0 0.00 0.00 0.00 38 1009.5
20180820173604 90 346 0.0 2.0 0.00 0.00 0.00 39 1009.6
20180820172605 90 171 0.0 1.0 0.00 0.00 0.00 40 1009.6
20180820172104 89 153 0.0 2.0 0.00 0.00 0.00 40 1009.6
20180820171604 88 129 0.0 1.0 0.00 0.00 0.00 41 1009.6
20180820171104 88 128 1.0 2.0 0.00 0.00 0.00 40 1009.6
20180820170604 87 122 1.0 3.0 0.00 0.00 0.00 41 1009.7
20180820170104 87 143 0.0 2.0 0.00 0.00 0.00 44 1009.7
20180820165104 86 169 0.0 2.0 0.00 0.00 0.00 43 1009.7
20180820163104 84 146 0.0 1.0 0.00 0.00 0.00 46 1009.7
20180820162604 83 227 1.0 3.0 0.00 0.00 0.00 46 1009.7
20180820162104 83 105 1.0 2.0 0.00 0.00 0.00 46 1009.8
20180820161105 83 117 1.0 2.0 0.00 0.00 0.00 45 1009.7
20180820160104 82 181 0.0 2.0 0.00 0.00 0.00 47 1009.8
20180820155604 81 154 0.0 2.0 0.00 0.00 0.00 47 1009.7
20180820154604 81 170 0.0 0.0 0.00 0.00 0.00 50 1009.8
20180820153103 79 147 0.0 1.0 0.00 0.00 0.00 50 1009.9
20180820151103 76 124 0.0 0.0 0.00 0.00 0.00 56 1009.7
20180820150604 75 122 0.0 1.0 0.00 0.00 0.00 56 1009.6
20180820145604 74 135 0.0 1.0 0.00 0.00 0.00 57 1009.7
20180820144603 72 139 0.0 0.0 0.00 0.00 0.00 61 1009.6
20180820144104 70 139 0.0 1.0 0.00 0.00 0.00 63 1009.7
20180820143604 69 108 0.0 0.0 0.00 0.00 0.00 65 1009.7
20180820143103 68 108 0.0 0.0 0.00 0.00 0.00 65 1009.6
20180820142604 68 108 0.0 0.0 0.00 0.00 0.00 66 1009.5
20180820142104 68 108 0.0 0.0 0.00 0.00 0.00 66 1009.5
20180820141604 67 108 0.0 0.0 0.00 0.00 0.00 66 1009.5
20180820141104 67 108 0.0 0.0 0.00 0.00 0.00 65 1009.4
20180820140604 67 108 0.0 1.0 0.00 0.00 0.00 66 1009.4